Home   Weather   Tallahassee   Past weeks

Flag for USA Past Weather in Tallahassee, Florida, USA — Yesterday and Last 2 Weeks

Now
67 °F

Broken clouds.


Feels Like: 67 °F
Forecast: 62 / 71 °F
Wind: 5 mph from Northeast

Location: Tallahassee Regional Airport

Current Time: Feb 22, 2017 at 5:24:01 pm

Latest Report: Feb 22, 2017 at 4:53 pm


Visibility: 10 mi

Pressure: 29.71 "Hg

Humidity: 90%

Dew Point: 64 °F

Location of TallahasseeLocation

Past Weather in Tallahassee — Graph

°F

Tallahassee Temperature Yesterday

Maximum temperature yesterday: 76 °F (at 12:53 pm)
Minimum temperature yesterday: 55 °F (at 1:53 am)
Average temperature yesterday: 64 °F

High & Low Weather Summary for the Past Weeks

 TemperatureHumidityPressure
High81 °F (Feb 12, 2:53 pm)100% (Feb 7, 7:53 pm)30.46 "Hg (Feb 7, 7:53 pm)
Low32 °F (Feb 17, 4:53 am)16% (Feb 16, 4:53 pm)29.67 "Hg (Feb 15, 2:53 pm)
Average62 °F77%30.01 "Hg
* Reported Feb 7 3:53 pm — Feb 22 3:53 pm, Tallahassee, Weather by CustomWeather, © 2017

Note: Actual official high and low records may vary slightly from our data, if they occured in-between our weather recording intervals... More about our weather records

Advertising

Tallahassee Weather History for the Previous 24 Hours

Scroll right to see more
 ConditionsComfort  
Time TempWeatherWind HumidityBarometerVisibility
3:53 pm
Wed, Feb 22
66 °FLight rain. Broken clouds.6 mph93%29.70 "Hg10 mi
2:53 pm66 °FLight rain. Cloudy.6 mph90%29.70 "Hg10 mi
2:44 pm65 °FHeavy rain. Fog.7 mph91%29.71 "Hg2 mi
1:53 pm67 °FLight rain. Broken clouds.7 mph93%29.71 "Hg10 mi
1:06 pm65 °FLight rain. Partly sunny.8 mph94%29.74 "Hg10 mi
12:22 pm65 °FHeavy rain. Fog.10 mph87%29.75 "Hg2 mi
11:53 am68 °FCloudy.8 mph90%29.75 "Hg10 mi
11:37 am67 °FCloudy.8 mph90%29.76 "Hg10 mi
11:20 am68 °FMostly cloudy.8 mph90%29.76 "Hg10 mi
10:53 am66 °FLight rain. Mostly cloudy.9 mph93%29.76 "Hg8 mi
10:27 am67 °FLight rain. Cloudy.14 mph93%29.76 "Hg10 mi
9:53 am65 °FRain. Fog.9 mph94%29.75 "Hg4 mi
8:53 am64 °FMostly cloudy.10 mph97%29.74 "Hg10 mi
8:37 am63 °FMostly cloudy.8 mph100%29.75 "Hg10 mi
7:53 am63 °FLight rain. Mostly cloudy.8 mph97%29.75 "Hg10 mi
7:05 am62 °FLight rain. Overcast.6 mph100%29.75 "Hg8 mi
6:53 am63 °FLight rain. Mostly cloudy.5 mph97%29.76 "Hg10 mi
6:33 am62 °FMostly cloudy.8 mph96%29.74 "Hg10 mi
6:07 am61 °FOvercast.7 mph100%29.75 "Hg10 mi
5:53 am61 °FMostly cloudy.8 mph100%29.75 "Hg10 mi
5:16 am61 °FLight rain. Mostly cloudy.7 mph100%29.77 "Hg10 mi
5:05 am61 °FLight rain. Overcast.7 mph100%29.77 "Hg10 mi
4:53 am61 °FLight rain. Mostly cloudy.6 mph100%29.77 "Hg10 mi
3:53 am61 °FLight rain. Mostly cloudy.3 mph100%29.80 "Hg10 mi
3:07 am61 °FLight rain. Fog.3 mph100%29.82 "Hg6 mi
2:34 am61 °FLight rain. Mostly cloudy.3 mph97%29.83 "Hg9 mi
2:06 am61 °FLight rain. Fog.3 mph97%29.84 "Hg3 mi
1:53 am60 °FHeavy rain. Fog.No wind100%29.85 "Hg2 mi
1:38 am61 °FHeavy rain. Fog.No wind100%29.86 "Hg2 mi
1:22 am61 °FHeavy rain. Fog.8 mph100%29.86 "Hg2 mi
1:06 am61 °FHeavy rain. Fog.No wind100%29.86 "Hg4 mi
12:13 am62 °FOvercast.3 mph93%29.87 "Hg10 mi
11:53 pm
Tue, Feb 21
62 °FLight rain. Mostly cloudy.No wind96%29.88 "Hg10 mi
11:04 pm63 °FMostly cloudy.3 mph90%29.90 "Hg10 mi
10:53 pm63 °FOvercast.5 mph90%29.90 "Hg10 mi
10:04 pm63 °FMostly cloudy.8 mph93%29.91 "Hg10 mi
9:32 pm64 °FMostly cloudy.7 mph90%29.93 "Hg10 mi
8:53 pm64 °FMostly cloudy.10 mph90%29.93 "Hg10 mi
7:53 pm69 °FMostly cloudy.8 mph79%29.93 "Hg10 mi
6:53 pm69 °FMostly cloudy.9 mph76%29.93 "Hg10 mi
5:53 pm70 °FBroken clouds.12 mph73%29.92 "Hg10 mi
Weather by CustomWeather, © 2017

See weather overviewHow to use our weather pages